This demonstration page uses our WeatherBlox Daily Observations layout. Learn more.

Left ArrowRight Arrow

Hourly Observations for March 15, 2021

Temp ( °F °C ) Dew Point ( °F °C ) Humidity (%) Winds ( mph kmh ) Pressure ( in mb ) Visibility ( mi km ) Precip ( " mm )
12:53 am 00:53 Clear 70 21.1 53 11.7 55 55 ESE 7 11 30.05 1018 10 16 0.00 0.00
1:53 am 01:53 Mostly Cloudy 68 20 54 12.2 61 61 ESE 6 9 30.06 1018 10 16 0.00 0.00
2:53 am 02:53 Clear 66 18.9 54 12.2 65 65 E 7 11 30.05 1018 10 16 0.00 0.00
3:53 am 03:53 Partly Cloudy 65 18.3 55 12.8 70 70 E 8 13 30.07 1018 10 16 0.00 0.00
4:53 am 04:53 Mostly Cloudy 64 17.8 54 12.2 70 70 ENE 7 11 30.07 1018 10 16 0.00 0.00
5:53 am 05:53 Mostly Clear 63 17.2 54 12.2 73 73 E 6 9 30.08 1019 10 16 0.00 0.00
6:53 am 06:53 Mostly Clear 62 16.7 53 11.7 73 73 ENE 6 9 30.09 1019 10 16 0.00 0.00
7:53 am 07:53 Sunny 62 16.7 51 10.6 67 67 E 7 11 30.08 1019 10 16 0.00 0.00
8:53 am 08:53 Partly Cloudy 62 16.7 51 10.6 67 67 E 8 13 30.11 1020 10 16 0.00 0.00
9:53 am 09:53 Mostly Cloudy 63 17.2 52 11.1 68 68 ESE 12 19 30.14 1021 10 16 0.00 0.00
10:53 am 10:53 Mostly Cloudy 63 17.2 49 9.4 60 60 E 8 13 30.17 1022 10 16 0.00 0.00
11:53 am 11:53 Cloudy 64 17.8 46 7.8 52 52 E 15 24 30.12 1020 10 16 0.00 0.00
12:53 pm 12:53 Cloudy 65 18.3 44 6.7 47 47 ESE 12 19 30.11 1020 10 16 0.00 0.00
1:53 pm 13:53 Cloudy 67 19.4 42 5.6 41 41 E 13 20 30.11 1020 10 16 0.00 0.00
2:53 pm 14:53 Cloudy 67 19.4 43 6.1 42 42 E 9 15 30.06 1018 10 16 0.00 0.00
3:53 pm 15:53 Cloudy 67 19.4 43 6.1 42 42 E 13 20 30.06 1018 10 16 0.00 0.00
4:53 pm 16:53 Cloudy 68 20 43 6.1 40 40 ESE 7 11 30.04 1017 10 16 0.00 0.00
5:53 pm 17:53 Cloudy 69 20.6 45 7.2 42 42 SE 10 17 30.03 1017 9 14 0.00 0.00
6:53 pm 18:53 Cloudy 68 20 44 6.7 42 42 E 8 13 30.03 1017 10 16 0.00 0.00
7:53 pm 19:53 Cloudy 68 20 46 7.8 45 45 ESE 9 15 30.02 1017 10 16 0.00 0.00
8:53 pm 20:53 Cloudy 67 19.4 47 8.3 49 49 ESE 10 17 30.02 1017 10 16 0.00 0.00
9:53 pm 21:53 Cloudy 67 19.4 49 9.4 53 53 ESE 8 13 30.04 1017 10 16 0.00 0.00
10:53 pm 22:53 Cloudy with Light Rain 66 18.9 51 10.6 59 59 E 6 9 30.05 1018 10 16 0.00 0.00
11:53 pm 23:53 Cloudy 61 16.1 54 12.2 78 78 ENE 6 9 30.06 1018 10 16 0.02 0.51

Powered by AerisWeather